#timestamp,LO_Frequency,Hit,StdDev 
1674846015.5,286047004.0,N
1674846035.3,286047003.9,N
1674846055.2,286047004.1,N
1674846075.0,286047003.0,N
1674846075.9,286047003.0,N
1674846095.8,286047005.4,Y
1674846115.6,286047005.3,P
1674846135.4,286047003.2,N
1674846155.3,286047004.0,N
1674846175.1,286047001.7,N
1674846195.9,286047001.8,N
1674846215.7,286047002.1,N
1674846235.5,286047001.6,N
1674846255.4,286047001.4,N
1674846275.2,286047004.1,Y
1674846295.0,286046999.9,P
1674846295.9,286046999.9,N
1674846315.8,286046998.3,N
1674846335.6,286047000.8,N
1674846355.5,286046999.4,N
1674846375.3,286046998.1,N
1674846395.1,286047000.0,N
1674846415.9,286046999.9,N
1674846435.7,286046998.8,N
1674846455.5,286046998.3,N
1674846475.4,286046999.0,N
1674846495.2,286046998.6,N
1674846515.1,286047001.1,N
1674846516.0,286047001.1,N
1674846535.8,286047000.0,N
1674846555.6,286046998.7,N
1674846575.5,286046998.8,N
1674846595.3,286046998.2,N
1674846615.1,286047001.2,N
1674846635.9,286046998.3,N
1674846655.7,286046995.7,Y
1674846675.6,286046995.0,P
1674846695.4,286046997.3,N
1674846715.2,286046995.0,N
1674846735.1,286046995.8,N
1674846736.0,286046995.8,N
1674846755.8,286046999.4,N
1674846775.6,286046997.8,N
1674846795.5,286046996.0,N
1674846815.3,286046993.8,Y
1674846835.2,286046998.8,P
1674846855.0,286046997.3,N
1674846855.9,286046997.3,P
1674846875.7,286046999.4,N
1674846895.6,286046999.8,N
1674846915.4,286047001.7,N
1674846935.3,286047005.6,Y
1674846955.1,286047006.3,P
1674846975.8,286047006.8,N
1674846995.7,286047007.5,N
1674847015.5,286047008.6,N
1674847035.4,286047008.7,N
1674847055.2,286047006.6,N
1674847075.0,286047008.1,N
1674847075.9,286047008.1,N
1674847095.8,286047007.2,N
1674847115.6,286047005.3,N
1674847135.5,286047003.0,N
1674847155.3,286047006.0,N
1674847175.1,286047005.0,N
1674847195.9,286047006.1,N
1674847215.7,286047008.1,Y
1674847235.6,286047000.1,P
1674847255.4,286046999.8,N
1674847275.2,286047002.7,N
1674847295.1,286047002.4,N
1674847296.0,286047002.4,N
1674847315.8,286047004.3,N
1674847335.7,286047001.5,N
1674847355.5,286047002.2,N
1674847375.3,286047002.3,N
1674847395.2,286047001.9,N
1674847415.0,286047000.1,N
1674847415.9,286047000.1,N
1674847435.7,286047001.9,N
1674847455.6,286047001.5,N
1674847475.4,286047000.5,N
1674847495.3,286046996.6,N
1674847515.1,286046996.8,N
1674847535.8,286046998.9,N
1674847555.7,286046998.5,N
1674847575.5,286047002.4,N
1674847595.3,286047001.6,N
1674847615.2,286047003.7,N
1674847635.0,286047002.9,N
1674847635.9,286047002.9,N
1674847655.8,286047001.7,N
1674847675.6,286046999.8,N
1674847695.4,286047000.4,N
1674847715.3,286047002.7,N
1674847735.1,286047000.4,N
1674847755.8,286046999.9,N
1674847775.7,286047002.4,N
1674847795.5,286047001.7,N
1674847815.4,286047004.1,N
1674847835.2,286047000.2,N
1674847855.0,286046996.9,N
1674847855.9,286046996.9,N
1674847875.8,286047001.2,N
1674847895.6,286046997.3,N
1674847915.4,286046998.8,N
1674847935.3,286047000.8,N
1674847955.1,286047002.4,N
1674847975.9,286047002.8,N
1674847995.7,286047002.2,N
1674848015.5,286047002.6,N
1674848035.4,286047002.7,N
1674848055.2,286047004.4,N
1674848075.1,286046999.7,N
1674848076.0,286046999.7,N
1674848095.8,286047000.7,N
1674848115.6,286047000.3,N
1674848135.5,286047000.3,N
1674848155.3,286047000.3,N
1674848175.1,286047000.4,N
1674848195.9,286047002.4,N
1674848215.7,286047002.6,N
1674848235.6,286046998.5,N
1674848255.4,286046999.3,N
1674848275.2,286047000.8,N
1674848295.1,286047000.4,N
1674848296.0,286047000.4,N
1674848315.8,286047001.1,N
1674848335.6,286047002.6,N
1674848355.5,286047002.2,N
1674848405.4,286047004.4,E
1674848415.3,286047002.8,N
1674848435.1,286046998.2,P
1674848455.8,286046998.7,N
1674848475.7,286046999.3,N
1674848495.5,286046999.0,N
1674848515.4,286046998.4,N
1674848535.2,286046998.8,N
1674848555.0,286047001.2,N
1674848555.9,286047001.2,N
1674848575.8,286046998.6,N
1674848595.6,286046998.6,N
1674848615.5,286047000.3,N
1674848635.3,286046997.2,N
1674848655.1,286046997.4,N
1674848675.9,286046996.9,N
1674848695.7,286046995.0,Y
1674848715.6,286046997.1,P
1674848735.4,286046998.1,N
1674848755.2,286047000.7,N
1674848775.1,286046998.8,N
1674848776.0,286046998.8,N
1674848795.8,286046996.7,Y
1674848815.7,286046999.6,P
1674848835.5,286047000.7,N
1674848855.3,286046998.1,N
1674848875.2,286046998.8,N
1674848895.0,286046996.9,Y
1674848895.9,286046996.9,P
1674848915.8,286046998.2,N
1674848935.6,286047001.1,N
1674848955.4,286047002.8,N
1674848975.3,286046999.8,N
1674848995.1,286047002.7,N
1674849015.8,286046999.9,N
1674849065.7,286047001.0,E
1674849075.6,286047000.5,N
1674849095.5,286047002.6,P
1674849115.3,286047002.5,N
1674849135.1,286047002.2,N
1674849155.9,286046999.7,N
1674849175.7,286047000.3,N
1674849195.6,286046998.9,N
1674849215.4,286046998.6,N
1674849235.2,286046998.5,N
1674849255.1,286047000.1,N
1674849256.0,286047000.1,N
1674849275.8,286047000.6,N
1674849295.7,286047000.4,N
1674849315.5,286046999.5,N
1674849335.3,286046997.1,N
1674849355.2,286046997.5,N
1674849375.0,286046997.3,N
1674849375.9,286046997.3,N
1674849395.8,286047001.0,N
1674849415.6,286047000.3,N
1674849435.4,286047001.0,N
1674849455.3,286046996.7,N
1674849475.1,286046996.9,N
1674849495.9,286046997.0,N
1674849515.7,286046997.7,N
1674849535.5,286046999.2,N
1674849555.4,286046999.1,N
1674849575.2,286046999.2,N
1674849595.0,286046999.4,N
1674849595.9,286046999.4,N
